This is the latest recevied weather packets stored in our database for station/object K5FEP. If no packets are shown the sender has not sent any weather packets the latest 10 day(s).
| Time | Temp. | Humidity | Pressure | Rain* | Wind** | Luminosity | Snow |
|---|---|---|---|---|---|---|---|
| 1778004204 | 27.78° C | 26% | 1013.8 hPa | 0 mm | - | 858 W/m² | - |
| 1778003900 | 27.22° C | 29% | 1013.9 hPa | 0 mm | - | 888 W/m² | - |
| 1778003597 | 27.22° C | 29% | 1014 hPa | 0 mm | - | 874 W/m² | - |
| 1778003294 | 27.22° C | 31% | 1014 hPa | 0 mm | - | 971 W/m² | - |
| 1778002991 | 27.22° C | 29% | 1014.1 hPa | 0 mm | - | 979 W/m² | - |
| 1778002687 | 26.67° C | 30% | 1013.8 hPa | 0 mm | - | 989 W/m² | - |
| 1778002383 | 27.22° C | 30% | 1014.1 hPa | 0 mm | - | 977 W/m² | - |
| 1778002080 | 26.67° C | 32% | 1013.9 hPa | 0 mm | - | 983 W/m² | - |
| 1778001778 | 26.67° C | 30% | 1014.1 hPa | 0 mm | - | 979 W/m² | - |
| 1778001472 | 26.67° C | 31% | 1014.1 hPa | 0 mm | - | 990 W/m² | - |
| 1778001169 | 27.78° C | 32% | 1014.3 hPa | 0 mm | - | 988 W/m² | - |
| 1778000866 | 27.22° C | 31% | 1014.3 hPa | 0 mm | - | 996 W/m² | - |
| 1778000563 | 26.67° C | 34% | 1014.4 hPa | 0 mm | - | 991 W/m² | - |
| 1777999954 | 27.22° C | 32% | 1014.5 hPa | 0 mm | - | 989 W/m² | - |
| 1777999650 | 27.22° C | 34% | 1014.6 hPa | 0 mm | - | 972 W/m² | - |
| 1777999348 | 26.67° C | 34% | 1014.6 hPa | 0 mm | - | 950 W/m² | - |
| 1777999046 | 26.11° C | 35% | 1014.6 hPa | 0 mm | - | 914 W/m² | - |
| 1777998744 | 26.11° C | 34% | 1014.7 hPa | 0 mm | - | 889 W/m² | - |
| 1777998441 | 26.11° C | 36% | 1014.5 hPa | 0 mm | - | 922 W/m² | - |
| 1777998138 | 25.56° C | 37% | 1014.9 hPa | 0 mm | - | 954 W/m² | - |
| 1777997835 | 25° C | 36% | 1015 hPa | 0 mm | - | 961 W/m² | - |
| 1777997533 | 25.56° C | 36% | 1014.9 hPa | 0 mm | - | 941 W/m² | - |
| 1777997230 | 25° C | 39% | 1015 hPa | 0 mm | - | 921 W/m² | - |
| 1777996927 | 25.56° C | 38% | 1015 hPa | 0 mm | - | 873 W/m² | - |
| 1777996623 | 25.56° C | 39% | 1015 hPa | 0 mm | - | 887 W/m² | - |
* Rain latest hour (hover to see other rain measurements)
** Current wind speed in m/s (hover to see current wind gust speed)